This demonstration page uses our WeatherBlox Daily Observations layout. Learn more.

Left ArrowRight Arrow

44.8408, -93.29828

Hourly Observations for February 24, 2022

Temp ( °F °C ) Dew Point ( °F °C ) Humidity (%) Winds ( mph kmh ) Pressure ( in mb ) Visibility ( mi km ) Precip ( " mm )
12:53 am 00:53 Cloudy 3 -16.1 -11 -23.9 51 51 N 6 9 30.64 1038 10 16 0.00 0.00
1:53 am 01:53 Mostly Cloudy 2 -16.7 -11 -23.9 54 54 N 5 7 30.65 1038 10 16 0.00 0.00
2:53 am 02:53 Partly Cloudy 1 -17.2 -11 -23.9 56 56 NNE 3 6 30.62 1037 10 16 0.00 0.00
3:53 am 03:53 Mostly Clear -1 -18.3 -13 -25 56 56 N 5 7 30.60 1036 10 16 0.00 0.00
4:53 am 04:53 Mostly Clear -1 -18.3 -13 -25 56 56 NNE 6 9 30.60 1036 10 16 0.00 0.00
5:53 am 05:53 Mostly Clear -3 -19.4 -14 -25.6 58 58 N 3 6 30.60 1036 10 16 0.00 0.00
6:53 am 06:53 Mostly Clear -2 -18.9 -13 -25 59 59 NNE 7 11 30.60 1036 10 16 0.00 0.00
7:53 am 07:53 Mostly Cloudy 0 -17.8 -12 -24.4 57 57 N 6 9 30.59 1036 10 16 0.00 0.00
8:53 am 08:53 Mostly Cloudy 4 -15.6 -10 -23.3 52 52 NNE 7 11 30.58 1036 10 16 0.00 0.00
9:53 am 09:53 Mostly Cloudy 6 -14.4 -9 -22.8 49 49 N 6 9 30.58 1036 10 16 0.00 0.00
10:53 am 10:53 Cloudy 7 -13.9 -6 -21.1 55 55 N 6 9 30.57 1035 10 16 0.00 0.00
11:53 am 11:53 Cloudy 8 -13.3 -5 -20.6 55 55 N 8 13 30.53 1034 10 16 0.00 0.00
12:53 pm 12:53 Cloudy 10 -12.2 -4 -20 53 53 N 6 9 30.52 1033 10 16 0.00 0.00
1:29 pm 13:29 Cloudy with Light Snow 10 -12.2 -3 -19.4 55 55 N 8 13 30.53 1034 5 8 0.00 0.00
1:33 pm 13:33 Cloudy with Light Snow 10 -12.2 -2 -18.9 58 58 NNW 10 17 30.53 1034 2 3 0.00 0.00
1:40 pm 13:40 Cloudy with Light Snow 10 -12.2 0 -17.8 63 63 N 10 17 30.52 1034 2 2 0.00 0.00
1:53 pm 13:53 Cloudy with Light Snow 10 -12.2 1 -17.2 67 67 N 9 15 30.49 1033 2 2 0.00 0.00
2:09 pm 14:09 Mostly Cloudy with Light Snow 10 -12.2 2 -16.7 69 69 NNE 13 20 30.50 1033 1 2 0.00 0.00
2:16 pm 14:16 Mostly Cloudy with Light Snow 10 -12.2 2 -16.7 69 69 NNE 10 17 30.50 1033 1 2 0.00 0.00
2:36 pm 14:36 Cloudy with Light Snow 10 -12.2 3 -16.1 73 73 NNE 9 15 30.50 1033 2 2 0.01 0.25
2:53 pm 14:53 Cloudy with Light Snow 10 -12.2 4 -15.6 76 76 NNE 9 15 30.47 1032 1 2 0.01 0.25
3:11 pm 15:11 Mostly Cloudy with Light Snow 10 -12.2 4 -15.6 76 76 NNE 12 19 30.48 1032 1 1 0.01 0.25
3:53 pm 15:53 Mostly Cloudy with Light Snow 11 -11.7 5 -15 77 77 NNE 12 19 30.45 1031 1 2 0.04 1.02
4:06 pm 16:06 Cloudy with Light Snow 11 -11.7 5 -15 77 77 NNE 10 17 30.47 1032 1 2 0.00 0.00
4:53 pm 16:53 Cloudy with Light Snow 11 -11.7 5 -15 77 77 N 12 19 30.45 1031 1 2 0.01 0.25
5:53 pm 17:53 Cloudy with Light Snow 11 -11.7 6 -14.4 81 81 NNE 9 15 30.44 1031 1 2 0.02 0.51
6:15 pm 18:15 Cloudy with Light Snow 10 -12.2 6 -14.4 84 84 N 9 15 30.46 1032 1 2 0.00 0.00
6:24 pm 18:24 Cloudy with Light Snow 11 -11.7 5 -15 77 77 N 9 15 30.47 1032 3 5 0.00 0.00
6:33 pm 18:33 Cloudy with Light Snow 11 -11.7 5 -15 77 77 N 10 17 30.47 1032 3 4 0.01 0.25
6:53 pm 18:53 Cloudy with Light Snow 11 -11.7 5 -15 77 77 N 10 17 30.44 1031 2 3 0.01 0.25
7:30 pm 19:30 Cloudy with Light Snow 11 -11.7 6 -14.4 81 81 N 8 13 30.48 1032 2 3 0.01 0.25
7:49 pm 19:49 Cloudy with Light Snow 10 -12 7 -14 85 85 N 8 13 30.48 1032 3 4 0.01 0.25
7:53 pm 19:53 Cloudy with Light Snow 11 -11.7 6 -14.4 81 81 N 9 15 30.45 1031 3 4 0.01 0.25
8:05 pm 20:05 Cloudy with Light Snow 11 -11.7 6 -14.4 81 81 N 8 13 30.47 1032 3 5 0.00 0.00
8:53 pm 20:53 Cloudy with Light Snow 11 -11.7 6 -14.4 81 81 N 10 17 30.45 1031 3 5 0.01 0.25
9:23 pm 21:23 Cloudy with Light Snow 11 -11.7 6 -14.4 81 81 N 8 13 30.48 1032 3 5 0.01 0.25
9:42 pm 21:42 Cloudy with Light Snow 11 -11.7 6 -14.4 81 81 N 9 15 30.49 1033 2 3 0.01 0.25
9:53 pm 21:53 Cloudy with Light Snow 11 -11.7 6 -14.4 81 81 N 9 15 30.45 1031 2 3 0.02 0.51
10:13 pm 22:13 Cloudy with Light Snow 11 -11.7 6 -14.4 81 81 N 10 17 30.49 1033 3 5 0.00 0.00
10:53 pm 22:53 Cloudy with Light Snow 11 -11.7 5 -15 77 77 N 7 11 30.45 1031 5 8 0.00 0.00
11:28 pm 23:28 Cloudy with Light Snow 10 -12.2 5 -15 80 80 N 8 13 30.49 1033 4 6 0.00 0.00
11:53 pm 23:53 Cloudy with Light Snow 10 -12.2 5 -15 80 80 N 8 13 30.45 1031 3 5 0.01 0.25

Powered by AerisWeather